User: anonymous
Location: Fort Wayne
(41.1310°N, 85.1290°W)
Time: 03:20:05
(UTC-04:00)
Language:

Helios 1B - Orbit

View from above orbital plane
View from above orbital plane
View from above satellite
View from above satellite

Ground track
Ground track

The orbit data is extracted from the following two-line orbital elements,

1 25977U 99064A   14110.83686978  .00003023  00000-0  40539-3 0  2333
2 25977 098.1676 187.2766 0002345 081.1867 034.3790 14.80140917773245
Epoch (UTC): 20 April 2014 20:05:05
Eccentricity: 0.0002345
inclination: 98.1676°
perigee height: 627 km
apogee height: 630 km
right ascension of ascending node: 187.2766°
argument of perigee: 81.1867°
revolutions per day: 14.80140917
mean anomaly at epoch: 34.3790°
orbit number at epoch: 77324

The dashed part of the orbit path shows where the satellite is in the earth's shadow,  

DLR